STARLINK-31970, 59928

Orbit data source: Space-Track

STARLINK-31970, 59928 is a payload satellite owned by SpaceX/Seattle (US) in LEO that was launched on Sat, 01 Jun 2024 UTC via an FALCON 9 launch vehicle from the Air Force Eastern Test Range (AFETR). Payload-class satellites include a variety of spacecraft equipped with specific instruments for various scientific and technological missions. These include communications satellites like Starlink; space stations such as the ISS; scientific satellites like the Hubble; Earth observation satellites from companies like Planet Labs, Umbra, and HawkEye 360; GPS; miniature CubeSats for education and research; and military/defense satellites.

Loading next visibility...
Identifier
59928, 2024-106G
Orbit
LEO
Country
Flag of USUS
Related business
Manufacturer
SpaceX/Seattle
Mission
Operational Commercial Communications
Bus & Motor
STARLINK V2M, Unknown motor
Mass
730 kg wet, ~700 kg dry
Launch date (UTC)
2024-06-01 (2 years ago)
Launch vehicle
FALCON 9
Launch site
Air Force Eastern Test Range (AFETR)
Object type
Payload
Rocket body
Debris
Shape & HBR
Box + 2 Pan, 17.7 m
Radar Cross Section
33.884 m², Large (>1 m²)

Expand to show TLE details & history
Last TLE update: 8 hours ago

TLE from 8 hours ago
0 STARLINK-31970
1 59928U 24106G   25343.66179184  .00002089  00000-0  85424-4 0  9991
2 59928  42.9993 120.9977 0001243 261.4858  98.5853 15.27573802 86800
Epoch: 2025-12-09T15:52Z
TLE epoch observation values (Epoch: 2025-12-09T15:52:58.814Z)
Latitude
-0.00002°
Longitude
164.10935°
Altitude
482.97 km
Speed
7.626 km/s
True Right ascension
08h 03m 59s
True Declination
0° 00' 00"
Sunlit
Object was in full shadow at epoch
Visualization orbit readout
Latitude
Unknown
Longitude
Unknown
Altitude
Unknown
Speed
Unknown
Apparent Right ascension
Unknown
Apparent Declination
Unknown
Sunlit
N/A
Visualization observer readout
Local Sidereal Time
21:39:17
Azimuth
Unknown
Elevation
Unknown
Doppler factor
Unknown
Orbital elements
Apogee altitude
485.866 km
Perigee altitude
484.16 km
Semi-major axis
6,863.15 km
Eccentricity
0.00012
Inclination
42.9993°
RAAN
120.9977°
Arg. of periapsis
261.4858°
True anomaly
98.59938°
Mean anomaly
98.5853°
Eccentric anomaly
98.59234°
Mean motion
3.81731 °/min
Orbital period
94.31 mins
BSTAR
0.000085424
Loading maneuver chart data...
Computing Atmospheric mass density...
Loading historical data...
Loading historical data...
Loading historical data...
Loading historical data...
Loading historical data...
Loading historical data...
Loading historical data...

Documentation

Showing up to 5 results
|